Regional Weather Roundup
Issued by NWS

Home | Current Version | Previous Version | Graphics & Text | Print | Product List | Glossary On
Versions: 1 2 3 4 5 6 7 8 9 10 11 12 13 14 15 16 17 18 19 20 21 22 23 24 25 26 27 28 29 30 31 32 33 34 35 36 37 38 39 40 41 42 43 44 45 46 47 48 49 50
000
ASUS43 KLOT 080000
RWRIL

ILLINOIS REGIONAL WEATHER ROUNDUP
NATIONAL WEATHER SERVICE CHICAGO/ROMEOVILLE IL
700 PM CDT TUE JUL 07 2015

NOTE: "FAIR" INDICATES FEW OR NO CLOUDS BELOW 12,000 FEET WITH NO
SIGNIFICANT WEATHER AND/OR OBSTRUCTIONS TO VISIBILITY.

* THESE STATIONS ARE NOT UNDER NWS QUALITY CONTROL. THEY ALSO MAY NOT
  REPORT WEATHER SUCH AS PRECIPITATION OR FOG.

ILZ001-002-007-009-015-016-024-080100-
NORTHWEST ILLINOIS

CITY           SKY/WX    TMP DP  RH WIND       PRES   REMARKS
MOLINE         MOSUNNY   70  53  54 NE6       30.05R HAZE
6HR MIN TEMP:  70; 6HR MAX TEMP:  74;

STERLING*      CLOUDY    70  55  60 N6        30.06S
$$

ILZ003-004-008-010-011-017-018-080100-
NORTH CENTRAL ILLINOIS

CITY           SKY/WX    TMP DP  RH WIND       PRES   REMARKS
ROCKFORD       PTSUNNY   69  51  52 N12       30.07S
6HR MIN TEMP:  69; 6HR MAX TEMP:  74;

$$

ILZ005-006-012>014-019>023-080100-
NORTHEAST ILLINOIS

CITY           SKY/WX    TMP DP  RH WIND       PRES   REMARKS
CHICAGO-OHARE  MOSUNNY   63  46  54 NE13      30.07R
6HR MIN TEMP:  63; 6HR MAX TEMP:  68;

CHICAGO-MIDWAY MOSUNNY   64  46  52 NE17      30.07R
6HR MIN TEMP:  64; 6HR MAX TEMP:  69;

AURORA         MOSUNNY   66  50  56 E13       30.07R
6HR MIN TEMP:  66; 6HR MAX TEMP:  72;

WAUKEGAN       SUNNY     59  47  64 NE9       30.08R
6HR MIN TEMP:  58; 6HR MAX TEMP:  65;

DUPAGE AIRPORT SUNNY     63  49  60 E8        30.07R
6HR MIN TEMP:  63; 6HR MAX TEMP:  71;

WHEELING       SUNNY     62  45  53 NE13G20   30.09R
6HR MIN TEMP:  62; 6HR MAX TEMP:  66;

NORTHERLY ISL    N/A     60  49  66 MISG        N/A
$$

LMZ740>746-080100-
SOUTHERN LAKE MICHIGAN

STATION/POSITION SKY/WX   TEMP    WIND        PRES    VSBY  WAVE
                          AIR SEA DIR/SP/G                  HT/PER
                          (F)     (DEG/KT/KT) (MB)    (MI)  (FT/S)
HARRISON CRIB              58      20/ 16/ 19   N/A
BURNHAM HARBOR             61     360/  8/ 14   N/A
CALUMET HARBOR             61     360/  9/ 14   N/A
BURNS HARBOR               61      20/ 19/ 22 1017.9S
MICHIGAN CITY              61     360/ 28/ 31   N/A
MICHIGAN CITY 6N           61 65   20/ 19/ 25   N/A           9/ 7
ST. JOSEPH                 61 63   40/ 21/ 27   N/A           9/ 2
$$

ILZ025>027-034>036-040-047-049-050-058-095>099-080100-
WEST-CENTRAL ILLINOIS

CITY           SKY/WX    TMP DP  RH WIND       PRES   REMARKS
QUINCY         PTSUNNY   71  60  68 NE7       30.03S HAZE
$$

ILZ028>032-037-038-041>044-048-051>054-059>061-080100-
CENTRAL ILLINOIS

CITY           SKY/WX    TMP DP  RH WIND       PRES   REMARKS
DECATUR        CLOUDY    68  56  65 NE12      30.02S
PEORIA         PTSUNNY   72  58  61 NE8       30.03S HAZE
6HR MIN TEMP:  65; 6HR MAX TEMP:  76; 6HR PCP: TRACE;

SPRINGFIELD    CLOUDY    72  61  68 NE8       30.02S
6HR MIN TEMP:  67; 6HR MAX TEMP:  73;

TAYLORVILLE    NOT AVBL
$$

ILZ033-039-045-046-055>057-062-063-080100-
EAST-CENTRAL ILLINOIS

CITY           SKY/WX    TMP DP  RH WIND       PRES   REMARKS
CHAMPAIGN      CLOUDY    67  53  61 NE13G20   30.03S
MATTOON        CLOUDY    66  60  81 NE9       30.01S
$$

ILZ079-100>102-080100-
SOUTHWEST ILLINOIS

CITY           SKY/WX    TMP DP  RH WIND       PRES   REMARKS
BELLEVILLE     PTSUNNY   68  67  97 N6        30.00R
CAHOKIA*       LGT RAIN  68  64  87 N12       30.01R FOG
$$

ILZ064>066-069>071-074>076-080>082-084>086-088>090-092>094-080100-
SOUTH-CENTRAL ILLINOIS

CITY           SKY/WX    TMP DP  RH WIND       PRES   REMARKS
CARBONDALE     LGT RAIN  75  73  93 N7        29.96R
6HR MIN TEMP:  75; 6HR MAX TEMP:  78; 6HR PCP:  0.34;

MT. VERNON     CLOUDY    68  63  83 N8        29.99R
$$

ILZ067-068-072-073-078-083-087-091-080100-
SOUTHEAST ILLINOIS

CITY           SKY/WX    TMP DP  RH WIND       PRES   REMARKS
LAWRENCEVILLE  CLOUDY    68  50  53 N8        29.99R
$$

ABBREVIATIONS USED IN REMARKS
   TC - TEMPERATURE IN CELSIUS
  WCI - WIND CHILL INDEX
   HX - HEAT INDEX
  VSB - VISIBILITY
$$



USA.gov is the U.S. government's official web portal to all federal, state and local government web resources and services.